• In Belarus
  • List of Countries
  • For 7 days
  • Water Temperature
  • Satellite Maps
  • Weather Map
  • Weather Widgets
  • user-avatar
    Login

    Hourly Weather Baden-Baden

    Today, 17 December, Sunday

    Time Temperature Precipitation Wind Pressure Humidity
    00:00 -1°C° 0.2 mm 2 mps 732 mmHg 92%
    01:00 +1°C° 0 mm 1 mps 732 mmHg 93%
    02:00 -1°C° 0.1 mm 2 mps 732 mmHg 93%
    03:00 -1°C° 0.1 mm 2 mps 732 mmHg 93%
    04:00 -1°C° 0.1 mm 2 mps 733 mmHg 93%
    05:00 -1°C° 0.1 mm 2 mps 733 mmHg 93%
    06:00 -2°C° 0.1 mm 3 mps 733 mmHg 92%
    07:00 -2°C° 0 mm 3 mps 733 mmHg 92%
    08:00 -2°C° 0 mm 3 mps 734 mmHg 90%
    09:00 -1°C° 0 mm 3 mps 735 mmHg 88%
    10:00 -1°C° 0 mm 3 mps 735 mmHg 86%
    11:00 -1°C° 0 mm 3 mps 735 mmHg 83%
    12:00 0°C° 0 mm 3 mps 736 mmHg 81%
    13:00 0°C° 0 mm 3 mps 736 mmHg 78%
    14:00 0°C° 0 mm 3 mps 736 mmHg 79%
    15:00 +1°C° 0 mm 2 mps 736 mmHg 81%
    16:00 +1°C° 0 mm 2 mps 736 mmHg 82%
    17:00 -1°C° 0 mm 2 mps 737 mmHg 83%
    18:00 -1°C° 0 mm 2 mps 737 mmHg 85%
    19:00 -1°C° 0 mm 2 mps 737 mmHg 86%
    20:00 -1°C° 0 mm 2 mps 737 mmHg 86%
    21:00 -2°C° 0 mm 2 mps 737 mmHg 86%
    22:00 -2°C° 0 mm 2 mps 737 mmHg 86%
    23:00 -2°C° 0 mm 2 mps 737 mmHg 85%

    Tomorrow, 18 December, Monday

    Time Temperature Precipitation Wind Pressure Humidity
    00:00 -2°C° 0 mm 2 mps 737 mmHg 84%
    01:00 -2°C° 0 mm 3 mps 737 mmHg 83%
    02:00 -2°C° 0.1 mm 3 mps 736 mmHg 83%
    03:00 -2°C° 0.1 mm 3 mps 736 mmHg 83%
    04:00 -1°C° 0.1 mm 3 mps 735 mmHg 83%
    05:00 -1°C° 0.4 mm 3 mps 734 mmHg 84%
    06:00 -1°C° 0.4 mm 3 mps 734 mmHg 85%
    07:00 -1°C° 0.4 mm 3 mps 733 mmHg 87%
    08:00 -1°C° 0.6 mm 3 mps 733 mmHg 88%
    09:00 -1°C° 0.6 mm 3 mps 733 mmHg 89%
    10:00 +1°C° 0.6 mm 2 mps 733 mmHg 90%
    11:00 +1°C° 0.4 mm 2 mps 733 mmHg 90%
    12:00 +2°C° 0.4 mm 1 mps 733 mmHg 91%
    13:00 +3°C° 0.4 mm 1 mps 733 mmHg 92%
    14:00 +2°C° 0.1 mm 1 mps 733 mmHg 93%
    15:00 +1°C° 0.1 mm 0 mps 733 mmHg 94%
    16:00 +1°C° 0.1 mm 0 mps 734 mmHg 95%
    17:00 +1°C° 0 mm 0 mps 734 mmHg 95%
    18:00 +1°C° 0 mm 0 mps 735 mmHg 95%
    19:00 +1°C° 0 mm 0 mps 736 mmHg 95%
    20:00 +1°C° 0 mm 0 mps 736 mmHg 95%
    21:00 0°C° 0 mm 0 mps 737 mmHg 95%
    22:00 +1°C° 0 mm 1 mps 737 mmHg 95%
    23:00 0°C° 0 mm 0 mps 737 mmHg 95%

    Day after tomorrow, 19 December, Tuesday

    Time Temperature Precipitation Wind Pressure Humidity
    00:00 0°C° 0 mm 0 mps 738 mmHg 95%
    01:00 0°C° 0 mm 0 mps 738 mmHg 94%
    02:00 0°C° 0 mm 0 mps 738 mmHg 94%
    03:00 +1°C° 0 mm 1 mps 739 mmHg 95%
    04:00 +1°C° 0 mm 1 mps 739 mmHg 95%
    05:00 +1°C° 0 mm 1 mps 740 mmHg 95%
    06:00 +1°C° 0 mm 1 mps 740 mmHg 95%
    07:00 +1°C° 0 mm 1 mps 740 mmHg 95%
    08:00 +2°C° 0 mm 1 mps 741 mmHg 94%
    09:00 +2°C° 0 mm 1 mps 741 mmHg 94%
    10:00 +2°C° 0 mm 1 mps 741 mmHg 94%
    11:00 +2°C° 0 mm 1 mps 742 mmHg 92%
    12:00 +3°C° 0 mm 1 mps 742 mmHg 91%
    13:00 +3°C° 0 mm 1 mps 742 mmHg 90%
    14:00 +3°C° 0 mm 1 mps 742 mmHg 91%
    15:00 +3°C° 0 mm 1 mps 742 mmHg 92%
    16:00 +2°C° 0 mm 1 mps 742 mmHg 93%
    17:00 +2°C° 0 mm 1 mps 742 mmHg 93%
    18:00 +2°C° 0 mm 1 mps 743 mmHg 93%
    19:00 +2°C° 0 mm 1 mps 743 mmHg 94%
    20:00 +2°C° 0.1 mm 1 mps 743 mmHg 94%
    21:00 +2°C° 0.1 mm 1 mps 743 mmHg 94%
    22:00 +2°C° 0.1 mm 1 mps 743 mmHg 94%
    23:00 +2°C° 0.4 mm 1 mps 743 mmHg 95%

    20 December, Wednesday

    Time Temperature Precipitation Wind Pressure Humidity
    00:00 +2°C° 0.4 mm 1 mps 743 mmHg 95%
    01:00 +2°C° 0.4 mm 1 mps 742 mmHg 95%
    02:00 +2°C° 0.6 mm 1 mps 742 mmHg 95%
    03:00 +2°C° 0.6 mm 1 mps 742 mmHg 95%
    04:00 +1°C° 0.6 mm 2 mps 742 mmHg 96%
    05:00 +1°C° 0.5 mm 2 mps 742 mmHg 96%
    06:00 +1°C° 0.5 mm 2 mps 742 mmHg 95%
    07:00 +1°C° 0.5 mm 2 mps 742 mmHg 95%
    08:00 +2°C° 0.4 mm 2 mps 742 mmHg 95%
    09:00 +2°C° 0.4 mm 2 mps 742 mmHg 95%
    10:00 +2°C° 0.4 mm 2 mps 742 mmHg 95%
    11:00 +2°C° 0.3 mm 2 mps 742 mmHg 95%
    12:00 +2°C° 0.3 mm 2 mps 742 mmHg 95%
    13:00 +2°C° 0.3 mm 2 mps 742 mmHg 94%
    14:00 +2°C° 0.3 mm 2 mps 742 mmHg 95%
    15:00 +2°C° 0.3 mm 2 mps 742 mmHg 95%
    16:00 +2°C° 0.3 mm 2 mps 742 mmHg 95%
    17:00 +2°C° 0.3 mm 2 mps 742 mmHg 95%
    18:00 +2°C° 0.3 mm 2 mps 742 mmHg 95%
    19:00 +2°C° 0.3 mm 2 mps 742 mmHg 95%
    20:00 +2°C° 0.2 mm 2 mps 742 mmHg 96%
    21:00 +3°C° 0.2 mm 2 mps 743 mmHg 96%
    22:00 +3°C° 0.2 mm 2 mps 743 mmHg 96%
    23:00 +3°C° 0.1 mm 2 mps 743 mmHg 96%

    21 December, Thursday

    Time Temperature Precipitation Wind Pressure Humidity
    00:00 +3°C° 0.1 mm 2 mps 743 mmHg 96%
    01:00 +3°C° 0.1 mm 2 mps 743 mmHg 96%
    02:00 +3°C° 0.1 mm 2 mps 743 mmHg 96%
    03:00 +3°C° 0.1 mm 2 mps 743 mmHg 96%
    04:00 +3°C° 0.1 mm 3 mps 743 mmHg 96%
    05:00 +3°C° 0.1 mm 3 mps 743 mmHg 96%
    06:00 +3°C° 0.1 mm 3 mps 743 mmHg 96%
    07:00 +3°C° 0.1 mm 3 mps 743 mmHg 96%
    08:00 +3°C° 0.2 mm 3 mps 743 mmHg 96%
    09:00 +4°C° 0.2 mm 3 mps 743 mmHg 95%
    10:00 +4°C° 0.2 mm 3 mps 743 mmHg 95%
    11:00 +4°C° 0.6 mm 4 mps 743 mmHg 95%
    12:00 +4°C° 0.6 mm 4 mps 743 mmHg 95%
    13:00 +5°C° 0.6 mm 4 mps 742 mmHg 94%
    14:00 +5°C° 1.1 mm 4 mps 742 mmHg 94%
    15:00 +5°C° 1.1 mm 5 mps 742 mmHg 94%
    16:00 +5°C° 1.1 mm 5 mps 741 mmHg 94%
    17:00 +5°C° 1.3 mm 5 mps 741 mmHg 94%
    18:00 +5°C° 1.3 mm 5 mps 741 mmHg 93%
    19:00 +5°C° 1.3 mm 5 mps 741 mmHg 93%
    20:00 +5°C° 0.3 mm 5 mps 741 mmHg 93%
    21:00 +5°C° 0.3 mm 6 mps 740 mmHg 92%
    22:00 +5°C° 0.3 mm 6 mps 740 mmHg 92%
    23:00 +5°C° 1.1 mm 6 mps 740 mmHg 92%

    22 December, Friday

    Time Temperature Precipitation Wind Pressure Humidity
    00:00 +5°C° 1.1 mm 6 mps 739 mmHg 92%
    01:00 +5°C° 1.1 mm 6 mps 739 mmHg 92%
    02:00 +5°C° 1.2 mm 6 mps 740 mmHg 91%
    03:00 +5°C° 1.2 mm 6 mps 740 mmHg 89%
    04:00 +6°C° 1.2 mm 5 mps 740 mmHg 88%
    05:00 +5°C° 0.1 mm 4 mps 741 mmHg 88%
    06:00 +4°C° 0.1 mm 3 mps 742 mmHg 88%
    07:00 +4°C° 0.1 mm 2 mps 742 mmHg 88%
    08:00 +3°C° 0 mm 3 mps 743 mmHg 87%
    09:00 +3°C° 0 mm 3 mps 744 mmHg 87%
    10:00 +3°C° 0 mm 3 mps 744 mmHg 86%
    11:00 +3°C° 0 mm 3 mps 745 mmHg 83%
    12:00 +4°C° 0 mm 3 mps 745 mmHg 79%
    13:00 +4°C° 0 mm 3 mps 745 mmHg 76%
    14:00 +3°C° 0 mm 3 mps 745 mmHg 78%
    15:00 +3°C° 0 mm 3 mps 745 mmHg 80%
    16:00 +4°C° 0 mm 2 mps 746 mmHg 81%
    17:00 +3°C° 0 mm 2 mps 746 mmHg 83%
    18:00 +2°C° 0 mm 3 mps 746 mmHg 85%
    19:00 +1°C° 0 mm 3 mps 746 mmHg 88%
    20:00 +1°C° 0 mm 3 mps 746 mmHg 89%
    21:00 +1°C° 0 mm 3 mps 746 mmHg 89%
    22:00 0°C° 0 mm 3 mps 746 mmHg 90%
    23:00 0°C° 0 mm 3 mps 746 mmHg 91%
    Show more